User: anonymous   Login
Location: Nantong Television Tower
(32.0188°N, 120.8512°E)
Time: 00:08:37
(UTC+08:00)
Language:

ATLAS 3B CENTAUR R/B - Orbit

View from above orbital plane
View from above orbital plane
View from above satellite
View from above satellite

Ground track
Ground track

The orbit data is extracted from the following two-line orbital elements,

1 28118U 03057B   16148.07434923  .00084139  00000-0  13891-2 0  9996
2 28118  28.1298  29.4354 3302439  97.2483 300.8294  8.86968388254401
Epoch (UTC): 27 May 2016 01:47:03
Eccentricity: 0.3302439
inclination: 28.1298°
perigee height: 224 km
apogee height: 6735 km
right ascension of ascending node: 29.4354°
argument of perigee: 97.2483°
revolutions per day: 8.86968388
mean anomaly at epoch: 300.8294°
orbit number at epoch: 25440

The dashed part of the orbit path shows where the satellite is in the earth's shadow,  

DLR